Location: Soapstone Prairie Natural Area
(40.9437°N, 105.0829°W)
Time: 04:50:17
(UTC-07:00)

ISS - Visible Passes

Search period start: 11 December 2016 00:00
Search period end: 21 December 2016 00:00
Orbit: 401 x 409 km, 51.6° (Epoch: 11 December)

Date Brightness Start Highest point End Pass type
(mag) Time Alt. Az. Time Alt. Az. Time Alt. Az.
11 Dec -0.8 18:25:30 10° NNW 18:26:16 13° NNW 18:26:16 13° NNW visible
12 Dec -1.2 17:33:36 10° NNW 17:35:26 14° N 17:36:27 13° NNE visible
13 Dec -1.3 18:17:48 10° NW 18:19:22 19° N 18:19:22 19° N visible
14 Dec -1.5 17:25:58 10° NNW 17:28:19 18° NNE 17:29:42 14° NE visible
14 Dec -0.3 19:01:58 10° NW 19:02:24 13° NW 19:02:24 13° NW visible
15 Dec -2.6 18:10:03 10° NW 18:12:51 39° N 18:12:51 39° N visible
16 Dec -2.2 17:18:11 10° NW 17:21:03 27° NNE 17:23:29 13° E visible
16 Dec -1.1 18:54:29 10° WNW 18:56:12 26° W 18:56:12 26° W visible
17 Dec -3.4 18:02:22 10° NW 18:05:41 89° SW 18:07:06 31° SE visible
18 Dec -3.1 17:10:23 10° NW 17:13:37 50° NNE 17:16:49 10° ESE visible
18 Dec -0.7 18:47:29 10° W 18:49:51 18° SW 18:51:07 15° SSW visible
19 Dec -1.6 17:54:55 10° WNW 17:57:57 34° SW 18:00:59 10° SSE visible
20 Dec -2.9 17:02:41 10° WNW 17:05:58 69° SW 17:09:14 10° SE visible
